OpenBCM V1.13 (Linux)

Packet Radio Mailbox

DB0FHN

[JN59NK Nuernberg]

 Login: GUEST





  
UR7IWZ > KEPS     21.02.03 14:14l 168 Lines 7915 Bytes #999 (0) @ AMSAT
BID : ORB03051.N
Read: DB0FHN GUEST
Subj: 2Line Orbital Elements 03051.AMSAT
Path: DB0FHN<DB0ZWI<DB0HST<ON0DXC<WA7V<RZ6HXA<UR7IWZ
Sent: 030221/0820Z @:UR7IWZ.DON.UKR.EU #:64990 XFBB7.04 Bid:ORB03051.N
From: UR7IWZ@UR7IWZ.DON.UKR.EU
To  : KEPS@AMSAT


HR AMSAT ORBITAL ELEMENTS FOR AMATEUR SATELLITES IN NASA FORMAT
FROM WA5QGD FORT WORTH,TX February 20, 2003
SEND SUBSCRIBE/UNSUBSCRIBE TO majordomo@amsat.org ONLY
BID: ORB03051.N

DECODE 2-LINE ELSETS WITH THE FOLLOWING KEY:
1 AAAAAU 00  0  0 BBBBB.BBBBBBBB  .CCCCCCCC  00000-0  00000-0 0  DDDZ
2 AAAAA EEE.EEEE FFF.FFFF GGGGGGG HHH.HHHH III.IIII JJ.JJJJJJJJKKKKKZ
KEY: A-CATALOGNUM B-EPOCHTIME C-DECAY D-ELSETNUM E-INCLINATION F-RAAN
G-ECCENTRICITY H-ARGPERIGEE I-MNANOM J-MNMOTION K-ORBITNUM Z-CHECKSUM

TO ALL RADIO AMATEURS BT

AO-07
1 07530U 74089B   03049.69169250 -.00000029  00000-0  10000-3 0 01535
2 07530 101.7618 097.4779 0012275 077.6699 282.5749 12.53564392293208
AO-10
1 14129U 83058B   03050.37921519 -.00000303  00000-0  10000-3 0  9177
2 14129  25.9543 164.1610 6026559 329.0466   6.3565  2.05869657148050
UO-11
1 14781U 84021B   03051.23606607  .00001815  00000-0  25880-3 0   751
2 14781  98.1183  25.1713 0008646 199.7462 160.3414 14.78008182 16481
RS-10/11
1 18129U 87054A   03049.80228056  .00000054  00000-0  42826-4 0 02147
2 18129 082.9272 146.3876 0010262 223.1155 136.9196 13.72700924784546
FO-20
1 20480U 90013C   03049.93556543  .00000011  00000-0  97569-4 0 04697
2 20480 099.0470 012.6088 0540649 003.0521 357.3664 12.83330411610567
RS-12/13
1 21089U 91007A   03049.90466873  .00000078  00000-0  67049-4 0 04996
2 21089 082.9228 181.1283 0027875 287.2823 072.5281 13.74404516603838
RS-15
1 23439U 94085A   03049.29359592 -.00000042  00000-0  24083-5 0  6825
2 23439  64.8151  41.9255 0146804 115.2566 246.3616 11.27547528335565
FO-29
1 24278U 96046B   03049.98530178  .00000027  00000-0  65133-4 0  5611
2 24278  98.5351 201.1475 0350170 215.3253 142.4226 13.52872814321360
SO-33
1 25509U 98061B   03051.60944406  .00000815  00000-0  15126-3 0  7841
2 25509  31.4311 141.6443 0357954 320.5477  36.9584 14.27438864225607
AO-40
1 26609U 00072B   03046.24037137 -.00000118  00000-0  10000-3 0  3115
2 26609   8.0800  64.6767 7942000 144.0329 312.8612  1.25596569 10543
UO-14
1 20437U 90005B   03050.75711020  .00000168  00000-0  79108-4 0  1683
2 20437  98.2732  94.3145 0010159 195.0038 165.0846 14.31238955682666
AO-16
1 20439U 90005D   03051.19121055  .00000216  00000-0  96785-4 0  8543
2 20439  98.3168 106.4206 0010381 200.4598 159.6166 14.31473507682763
WO-18
1 20441U 90005F   03051.24180961  .00000190  00000-0  87063-4 0   163
2 20441  98.3335 109.5759 0011190 199.6931 160.3822 14.31554947682821
LO-19
1 20442U 90005G   03050.73083583  .00000208  00000-0  93496-4 0  9671
2 20442  98.3445 112.1108 0011396 201.0439 159.0276 14.31718110682801
UO-22
1 21575U 91050B   03051.38500422  .00000415  00000-0  14720-3 0  7308
2 21575  98.1408  43.4140 0008242 122.8069 237.3914 14.39157672608549
KO-23
1 22077U 92052B   03049.95635298 -.00000037  00000-0  10000-3 0 02133
2 22077 066.0872 124.9187 0015562 273.5841 086.3395 12.86408451494358
AO-27
1 22825U 93061C   03050.87289159  .00000184  00000-0  89136-4 0  4905
2 22825  98.2748  80.5031 0007446 254.5614 105.4748 14.28944338490068
IO-26
1 22826U 93061D   03051.60307552  .00000200  00000-0  94745-4 0  3131
2 22826  98.2754  82.3140 0008081 253.9630 106.0658 14.29167789490216
KO-25
1 22828U 93061F   03051.65290853  .00000162  00000-0  79519-4 0  4302
2 22828  98.2711  82.6236 0009113 229.8362 130.2023 14.29509495458427
TO-31
1 25396U 98043C   03050.51986494 -.00000043  00000-0  00000 0 0  8247
2 25396  98.6274 127.6098 0003770 124.1545 235.9993 14.23511162239667
GO-32
1 25397U 98043D   03049.97952289  .00000091  00000-0  59533-4 0 01404
2 25397 098.6224 125.9592 0002080 127.9193 232.2176 14.22960239239559
UO-36
1 25693U 99021A   03051.85317099  .00000691  00000-0  11866-3 0  7211
2 25693  64.5611   3.7942 0020648 316.0194  43.9253 14.76395373206595
AO-37
1 26065U 00004E   03051.88190447  .00000218  00000-0  95744-4 0  7388
2 26065 100.2107 107.0305 0036918 281.5453  78.1581 14.35510984160718
SO-41
1 26545U 00057A   03051.03336480  .00001087  00000-0  16298-3 0  4147
2 26545  64.5589  27.4201 0052013 238.4877 121.1083 14.78989248129432
MO-46
1 26548U 00057D   03050.04093145  .00001754  00000-0  23906-3 0  4176
2 26548  64.5581  23.3546 0045278 238.0922 121.5724 14.81278907129439
SO-42
1 26549U 00057E   03050.46150439  .00001422  00000-0  21149-3 0  6961
2 26549  64.5512  33.2956 0056463 238.8778 120.6775 14.77926519129276
NO-44
1 26931U 01043C   03051.20482476  .00000219  00000-0  11896-3 0  4064
2 26931  67.0472 251.4028 0005007 267.0283  93.0245 14.29116961 72586
AO-49
1 27605U 02058A   03050.93938975  .00001427  00000-0  24915-3 0   636
2 27605  64.5519 193.0741 0035714 113.1672 247.3195 14.71379641  9012
SO-50
1 27607U 02058C   03051.88773367  .00001340  00000-0  24296-3 0   574
2 27607  64.5506 190.6513 0037324 109.2094 251.3048 14.69913654  9144
NOAA-10
1 16969U 86073A   03050.88052483  .00000216  00000-0  10666-3 0  6674
2 16969  98.7300  44.9875 0013445  83.5512 276.7198 14.27065657854097
NOAA-11
1 19531U 88089A   03050.85567988  .00000215  00000-0  13550-3 0  5054
2 19531  98.9010 132.2340 0011531 195.2043 164.8784 14.14538913742985
NOAA-12
1 21263U 91032A   03050.88788934  .00000415  00000-0  19556-3 0  9744
2 21263  98.6263  40.4924 0013473  21.2980 338.8757 14.25083621611408
MET-3/5
1 21655U 91056A   03049.97807585  .00000051  00000-0  10000-3 0 05058
2 21655 082.5544 038.5689 0012709 193.6291 166.4489 13.16980672553530
MET-2/21
1 22782U 93055A   03050.83633253  .00000031  00000-0  14599-4 0  5222
2 22782  82.5464 213.8875 0022135 346.1111  13.9428 13.83532476478262
OKEAN-4
1 23317U 94066A   03049.91925603  .00001802  00000-0  22895-3 0 02298
2 23317 082.5428 328.5940 0024633 052.1047 308.2381 14.80919820450157
NOAA-14
1 23455U 94089A   03050.89006971  .00000174  00000-0  11777-3 0  5283
2 23455  99.1867  69.4939 0008621 224.4694 135.5785 14.13298340419664
SICH-1
1 23657U 95046A   03050.87011649  .00001535  00000-0  19899-3 0  9860
2 23657  82.5298 108.4891 0025968  31.1883 329.0864 14.79969467402420
NOAA-15
1 25338U 98030A   03050.86280227  .00000262  00000-0  13207-3 0   115
2 25338  98.5499  72.9780 0010056 318.0440  41.9968 14.24246416247983
RESURS
1 25394U 98043A   03050.90078693  .00000166  00000-0  91588-4 0  4529
2 25394  98.6308 128.8045 0002412  99.9514 260.1936 14.23878895239728
FENGYUN1
1 25730U 99025A   03051.42496472  .00000014  00000-0  30769-4 0  7711
2 25730  98.6336  75.7544 0014399   1.2613 358.8593 14.11734454194891
OKEAN-0
1 25860U 99039A   03049.97516548  .00000923  00000-0  15249-3 0 00698
2 25860 097.8641 097.4981 0002058 074.2227 285.9208 14.72611309192993
NOAA-16
1 26536U 00055A   03051.77871615  .00000267  00000-0  17025-3 0  2157
2 26536  98.9037   0.0455 0009962 303.1718  56.8495 14.11905750124460
NOAA-17
1 27453U 02032A   03050.90130354  .00000297  00000-0  15084-3 0  3095
2 27453  98.7560 122.1056 0011736 357.3889   2.7225 14.23295049 34156
HUBBLE
1 20580U 90037B   03051.08908193  .00002312  00000-0  17863-3 0  3340
2 20580  28.4695  28.1966 0003810 281.7352 165.5973 14.97832982502863
UARS
1 21701U 91063B   03051.69137839  .00000900  00000-0  85445-4 0  8296
2 21701  56.9818  23.4593 0004549 114.7175 245.4334 15.02865755626030
PO-34
1 25520U 98064B   03050.68001948  .00002981  00000-0  15016-3 0  6392
2 25520  28.4608 216.4578 0005432   2.2865 357.7711 15.13896998237758
ISS
1 25544U 98067A   03051.84760417  .00013945  00000-0  18422-3 0  7110
2 25544  51.6332 244.5510 0011989 227.2100 326.1041 15.58587332242850
WO-39
1 26061U 00004A   03050.90123888  .00000660  00000-0  23712-3 0  7691
2 26061 100.2077 108.2176 0034657 275.5297  84.1932 14.37828989160723
OO-38
1 26063U 00004C   03051.71597537  .00000188  00000-0  85267-4 0  7250
2 26063 100.2128 106.6864 0036821 281.2017  78.5023 14.35483018160699
NO-45
1 26932U 01043D   03051.88242018  .00000142  00000-0  88277-4 0  4013
2 26932  67.0540 249.3629 0004780 241.3724 118.6895 14.29295965 72709


Read previous mail | Read next mail


 11.09.2026 18:59:18lGo back Go up